Change the Weather History Date:

Monday, February 13, 2012

  Actual Average Record
Temperature  
Mean Temperature 34 °F 28 °F  
Max Temperature 43 °F 37 °F 60 °F (2015)
Min Temperature 24 °F 19 °F -17 °F (1949)
Degree Days  
Heating Degree Days 31 37  
Month to date heating degree days 442 503  
Since 1 July heating degree days 4453 4750  
Cooling Degree Days 0 0  
Month to date cooling degree days 0 0  
Year to date cooling degree days 0 0  
Moisture  
Dew Point 28 °F    
Average Humidity 73    
Maximum Humidity 92    
Minimum Humidity 53    
Precipitation  
Precipitation T in 0.03 in 0.66 in (1983)
Month to date precipitation 0.33 0.41  
Year to date precipitation 1.97 1.40  
Snow  
Snow T in - - ()
Month to date snowfall 1.5  
Since 1 July snowfall 9.3  
Snow Depth T in    
Sea Level Pressure  
Sea Level Pressure 29.83 in    
Wind  
Wind Speed 3 mph (ESE)    
Max Wind Speed 12 mph    
Max Gust Speed 14 mph    
Visibility 10 miles    
Events      
T = Trace of Precipitation, MM = Missing Value Source: NWS Daily Summary

Daily Weather History Graph

Daily Weather History Graph

Search for Another Location

Airport or City:

Trip Planner

Search our weather history database for the weather conditions in past years. The results will help you decide how hot, cold, wet, or windy it might be!

Date:

Astronomy

Feb. 13, 2012 Rise Set
Actual Time 7:31 AM MST 5:58 PM MST
Civil Twilight 7:01 AM MST 6:27 PM MST
Nautical Twilight 6:28 AM MST 7:01 PM MST
Astronomical Twilight 5:55 AM MST 7:34 PM MST
Moon 12:11 AM MST (2/13) 10:20 AM MST (2/13)
Length of Visible Light 11h 26m
Length of Day
10h 27m
Waning Gibbous, 61% of the Moon is Illuminated
Feb 13
Waning Gibbous
Feb 14
Last Quarter
Feb 21
New
Feb 29
First Quarter
Mar 8
Full

Hourly Weather History & Observations

Time (MST) Temp. Windchill Dew Point Humidity Pressure Visibility Wind Dir Wind Speed Gust Speed Precip Events Conditions
12:53 AM 34.0 °F 28.0 °F 30.0 °F 85% 29.85 in 10.0 mi SSW 6.9 mph - N/A   Overcast
1:53 AM 33.1 °F 26.9 °F 28.9 °F 85% 29.85 in 10.0 mi WSW 6.9 mph - N/A   Overcast
2:53 AM 33.1 °F - 30.0 °F 89% 29.85 in 9.0 mi Calm Calm - 0.00 in   Overcast
3:53 AM 32.0 °F - 30.9 °F 96% 29.84 in 10.0 mi Calm Calm - 0.00 in   Overcast
4:53 AM 30.9 °F 26.2 °F 28.9 °F 92% 29.86 in 10.0 mi WNW 4.6 mph - N/A   Overcast
5:31 AM 30.2 °F 25.4 °F 28.4 °F 93% 29.81 in 10.0 mi SW 4.6 mph - N/A   Overcast
5:53 AM 28.0 °F 22.8 °F 26.1 °F 92% 29.86 in 10.0 mi South 4.6 mph - N/A   Mostly Cloudy
6:53 AM 26.1 °F - 24.1 °F 92% 29.87 in 10.0 mi Calm Calm - N/A   Scattered Clouds
7:53 AM 26.1 °F - 24.1 °F 92% 29.87 in 10.0 mi Calm Calm - N/A   Scattered Clouds
8:53 AM 30.0 °F 24.1 °F 27.0 °F 88% 29.87 in 10.0 mi North 5.8 mph - N/A   Scattered Clouds
9:53 AM 33.1 °F 30.0 °F 28.9 °F 85% 29.86 in 10.0 mi North 3.5 mph - N/A   Scattered Clouds
10:53 AM 37.9 °F 34.4 °F 32.0 °F 79% 29.84 in 10.0 mi NE 4.6 mph - N/A   Partly Cloudy
11:53 AM 39.9 °F - 32.0 °F 73% 29.83 in 10.0 mi Calm Calm - N/A   Partly Cloudy
12:53 PM 41.0 °F 39.0 °F 30.0 °F 65% 29.79 in 10.0 mi East 3.5 mph - N/A   Scattered Clouds
1:53 PM 42.1 °F - 28.0 °F 58% 29.78 in 10.0 mi Calm Calm - N/A   Scattered Clouds
2:53 PM 42.1 °F 38.4 °F 27.0 °F 55% 29.78 in 10.0 mi South 5.8 mph - N/A   Mostly Cloudy
3:53 PM 41.0 °F 36.4 °F 28.0 °F 60% 29.78 in 10.0 mi SSE 6.9 mph - N/A   Mostly Cloudy
4:53 PM 41.0 °F 36.4 °F 30.0 °F 65% 29.78 in 10.0 mi East 6.9 mph - N/A   Scattered Clouds
5:53 PM 37.0 °F 33.3 °F 28.9 °F 73% 29.81 in 10.0 mi East 4.6 mph - N/A   Partly Cloudy
6:53 PM 34.0 °F 31.0 °F 27.0 °F 75% 29.83 in 10.0 mi East 3.5 mph - N/A   Partly Cloudy
7:53 PM 30.0 °F - 26.1 °F 85% 29.85 in 10.0 mi Calm Calm - N/A   Partly Cloudy
8:53 PM 28.9 °F 23.9 °F 26.1 °F 89% 29.83 in 10.0 mi East 4.6 mph - N/A   Partly Cloudy
9:53 PM 28.9 °F 25.2 °F 24.1 °F 82% 29.83 in 10.0 mi ESE 3.5 mph - N/A   Clear
10:53 PM 27.0 °F - 24.1 °F 89% 29.82 in 10.0 mi Calm Calm - N/A   Clear
11:53 PM 24.1 °F 16.0 °F 21.9 °F 91% 29.83 in 10.0 mi North 6.9 mph - N/A   Clear